[[{"header":{"parameterUnit":"m.s-1","parameterCategory":1,"la1":30.2991,"la2":30.254,"lo1":-89.0895,"lo2":-89.0444,"dy":0.0017,"dx":0.0017,"nx":28,"ny":28,"refTime":"2024-07-11T09:00:00:Z","depth":0,"parameterNumber":2,"parameterNumberName":"U-component_of_WINDS"},"data":[0,0,0,0,0,0,0,0,0,0,0,0,0,0,0,0,0,0,0,0,0,0,0,0,0,0,0,0,0,0,0,0,0,0,0,0,0,0,0,0,0,0,0,0,0,0,0,0,0,0,0,0,0,0,0,0,0,0,2.025,2.0251,0,2.0344,2.0345,2.0346,2.035,2.0349,2.0348,2.0347,2.0444,2.0447,2.0451,0,0,0,0,0,0,0,0,0,0,0,0,0,2.0076,2.0079,2.025,2.0251,2.0252,2.0343,2.0345,2.0346,2.035,2.0349,2.0347,2.0346,2.0443,2.0447,2.0451,0,0,0,0,0,0,0,0,0,0,0,0,0,2.0158,2.008,2.025,2.0265,2.0268,2.0343,2.0345,2.0346,2.035,2.0349,2.0347,2.0345,2.0441,2.0447,2.0452,2.0519,0,0,2.0469,2.0471,0,0,0,0,0,0,0,0,2.0154,2.0165,2.0262,2.0264,2.0267,2.0333,2.0319,2.0404,2.0351,2.0319,2.0347,2.0345,2.0409,2.0417,2.0438,2.0523,2.0527,2.0469,2.0472,2.0475,2.0476,0,0,0,0,0,0,0,2.0148,2.0161,2.0287,2.0263,2.0266,2.0268,2.0278,2.0335,2.0372,2.0322,2.0322,2.0333,2.041,2.0433,2.044,2.0529,2.0469,2.0474,2.0477,2.0479,2.0673,2.0675,0,0,0,0,0,0,2.0139,2.0156,2.0284,2.029,2.0205,2.0272,2.0283,2.0314,2.0371,2.0378,2.0334,2.0333,2.0424,2.0434,2.0444,2.0525,2.0475,2.048,2.0483,2.0672,2.0674,2.0676,0,0,0,0,0,0,2.0135,2.015,2.028,2.0223,2.024,2.0277,2.0311,2.0316,2.0339,2.0381,2.0388,2.0351,2.0423,2.0436,2.05,2.0528,2.0482,2.0487,2.0669,2.0672,2.0675,2.0688,0,0,0,0,0,0,2.013,2.0149,2.0175,2.0224,2.0243,2.0334,2.0313,2.0319,2.0349,2.0347,2.0398,2.0405,2.0423,2.0492,2.0505,2.0535,2.0491,2.0667,2.0671,2.0674,2.0685,2.0691,2.0696,0,0,0,0,0,2.0124,2.0175,2.0176,2.0191,2.0275,2.0336,2.0347,2.0366,2.0351,2.0377,2.0404,2.0404,2.0523,2.0498,2.0513,2.0545,2.0665,2.067,2.0674,2.0683,2.069,2.0696,0,0,0,0,0,0,2.0129,2.0182,2.0183,2.0251,2.0289,2.0337,2.037,2.0373,2.0416,2.0413,2.0436,2.0447,2.051,2.0535,2.0506,2.0613,2.0593,2.06,2.0594,2.0601,2.0607,2.0599,2.0496,0,0,0,0,0,2.0137,2.0182,2.0226,2.0282,2.0301,2.0332,2.036,2.0371,2.0411,2.0427,2.0459,2.0498,2.0544,2.0574,2.062,2.0689,2.07,2.0719,2.0724,2.0728,2.0734,2.0772,2.0781,2.069,2.069,2.069,0,0,2.0156,2.0191,2.0218,2.0284,2.0315,2.036,2.0346,2.0395,2.0429,2.0435,2.0496,2.0521,2.0567,2.0633,2.0665,2.0655,2.0762,2.0734,2.0737,2.0741,2.0778,2.0786,2.0794,2.0693,2.0692,2.0692,0,0,2.0214,2.0245,2.0294,2.0325,2.0372,2.0392,2.0404,2.0451,2.0468,2.053,2.0535,2.0576,2.0656,2.0688,2.0715,2.0784,2.0786,2.0799,2.0826,2.0863,2.087,2.0877,2.0901,2.0909,2.0805,2.0805,2.0805,0,2.0231,2.03,2.0319,2.0368,2.0397,2.0404,2.0455,2.0484,2.0543,2.0563,2.0552,2.0652,2.0683,2.0757,2.0774,2.0796,2.081,2.0792,2.0868,2.0874,2.0881,2.0904,2.0913,2.0806,2.0806,2.0806,2.0806,0,2.0319,2.0367,2.0401,2.0457,2.049,2.054,2.0567,2.0598,2.0607,2.0628,2.0692,2.073,2.0782,2.0801,2.081,2.0876,2.0869,2.0863,2.0843,2.089,2.0912,2.0921,2.0808,2.0807,2.0807,2.0807,0,0,2.038,2.0447,2.0459,2.0484,2.0536,2.0574,2.0624,2.0675,2.0701,2.0741,2.0783,2.0851,2.0845,2.0876,2.0889,2.0921,2.0973,2.0911,2.0912,2.092,2.1047,2.105,2.106,2.0975,2.0976,2.0978,2.1043,0,2.0443,2.0531,2.055,2.0626,2.067,2.0678,2.0722,2.0758,2.078,2.0821,2.0846,2.0892,2.0882,2.09,2.0933,2.096,2.0998,2.0955,2.1014,2.1015,2.1,2.1072,2.1076,2.1135,2.1052,2.1053,2.1054,0,2.0526,2.0568,2.0649,2.0695,2.0714,2.0753,2.08,2.084,2.0882,2.0895,2.0929,2.0939,2.0991,2.0969,2.1042,2.1012,2.1037,2.1054,2.1057,2.1062,2.1036,2.1078,2.1155,2.1163,2.1068,2.1067,2.1066,0,2.0562,2.0639,2.0697,2.0718,2.0774,2.08,2.0825,2.0865,2.0894,2.0937,2.0956,2.1004,2.103,2.1067,2.109,2.1072,2.116,2.114,2.1172,2.1172,2.1189,2.1188,2.127,2.1208,2.1208,2.1208,2.1208,0,2.0628,2.0677,2.0713,2.0749,2.0803,2.0825,2.0879,2.0903,2.0939,2.098,2.099,2.1028,2.1056,2.1098,2.1116,2.1172,2.1185,2.1197,2.1201,2.1195,2.1193,2.1211,2.1207,2.121,2.121,2.1209,2.1209,0,2.0676,2.0703,2.0766,2.0813,2.0826,2.0864,2.0905,2.094,2.0962,2.1013,2.1026,2.1061,2.1111,2.1137,2.12,2.1212,2.1275,2.1277,2.126,2.1262,2.1292,2.1288,2.1387,2.1401,2.1331,2.1331,2.1332,0,2.0716,2.0754,2.0805,2.0832,2.0857,2.0902,2.0931,2.0955,2.0986,2.1036,2.1065,2.1115,2.1156,2.1235,2.1266,2.1314,2.1317,2.1348,2.1324,2.1317,2.1316,2.1313,2.1316,2.1352,2.1353,2.1353,2.1354,0,2.0784,2.0795,2.0838,2.0885,2.092,2.0958,2.0996,2.1018,2.1048,2.1082,2.1133,2.1165,2.1228,2.1277,2.1328,2.1353,2.1358,2.1361,2.1371,2.1365,2.1353,2.1358,2.127,2.1359,2.1358,2.1358,2.1358,2.1357,2.0829,2.0862,2.0903,2.095,2.0981,2.1016,2.1051,2.1077,2.112,2.1172,2.1184,2.1237,2.1279,2.1346,2.1373,2.1415,2.1409,2.1423,2.1427,2.1429,2.143,2.1347,2.1425,2.1425,2.1425,2.1424,2.1424,0,2.0896,2.0922,2.0965,2.1018,2.1055,2.1057,2.1099,2.1129,2.1176,2.1214,2.1254,2.1312,2.136,2.1395,2.1444,2.1471,2.1474,2.1483,2.148,2.1486,2.1433,2.1419,2.1479,2.1479,2.1479,2.1479,2.1479,2.1479,2.0935,2.0991,2.1007,2.1079,2.1106,2.1157,2.1181,2.1213,2.1244,2.1308,2.1347,2.137,2.1407,2.1458,2.1502,2.1512,2.1529,2.1537,2.1546,2.1496,2.149,2.1484,2.1471,2.154,2.154,2.1594,2.1595,2.1595]},{"header":{"parameterUnit":"m.s-1","parameterCategory":1,"la1":30.2991,"la2":30.254,"lo1":-89.0895,"lo2":-89.0444,"dy":0.0017,"dx":0.0017,"nx":28,"ny":28,"refTime":"2024-07-11T09:00:00:Z","depth":0,"parameterNumber":3,"parameterNumberName":"V-component_of_WINDS"},"data":[0,0,0,0,0,0,0,0,0,0,0,0,0,0,0,0,0,0,0,0,0,0,0,0,0,0,0,0,0,0,0,0,0,0,0,0,0,0,0,0,0,0,0,0,0,0,0,0,0,0,0,0,0,0,0,0,0,0,2.7577,2.7578,0,2.769,2.7692,2.7693,2.7708,2.7707,2.7706,2.7705,2.7815,2.7819,2.7822,0,0,0,0,0,0,0,0,0,0,0,0,0,2.7365,2.7369,2.7577,2.7578,2.758,2.769,2.7692,2.7693,2.7708,2.7707,2.7705,2.7704,2.7813,2.7818,2.7823,0,0,0,0,0,0,0,0,0,0,0,0,0,2.7465,2.737,2.7576,2.76,2.7604,2.769,2.7692,2.7694,2.7708,2.7707,2.7705,2.7703,2.7812,2.7818,2.7823,2.7892,0,0,2.7841,2.7844,0,0,0,0,0,0,0,0,2.7459,2.7473,2.7595,2.7599,2.7603,2.7683,2.7657,2.776,2.7709,2.7668,2.7705,2.7703,2.7772,2.7781,2.7806,2.7897,2.7902,2.7842,2.7846,2.7848,2.785,0,0,0,0,0,0,0,2.7452,2.7468,2.7621,2.7597,2.7602,2.7603,2.7615,2.7677,2.7727,2.7672,2.7673,2.7687,2.7774,2.78,2.7808,2.7903,2.7842,2.7847,2.7851,2.7853,2.8052,2.8054,0,0,0,0,0,0,2.7442,2.7462,2.7618,2.7625,2.7526,2.7608,2.7622,2.7659,2.7727,2.7736,2.7688,2.7687,2.7791,2.7801,2.7812,2.7894,2.7848,2.7854,2.7857,2.805,2.8052,2.8054,0,0,0,0,0,0,2.7438,2.7456,2.7613,2.7544,2.7564,2.7613,2.7655,2.7662,2.7689,2.7739,2.7748,2.7706,2.779,2.7804,2.7871,2.7898,2.7856,2.7862,2.8048,2.8051,2.8053,2.806,0,0,0,0,0,0,2.7431,2.7454,2.7483,2.7545,2.7568,2.7673,2.7656,2.7665,2.7699,2.7699,2.7758,2.7767,2.779,2.7863,2.7877,2.7906,2.7866,2.8046,2.8049,2.8052,2.8058,2.8063,2.8067,0,0,0,0,0,2.7424,2.748,2.7484,2.7503,2.7605,2.7675,2.7688,2.7715,2.7702,2.7729,2.7761,2.7765,2.7893,2.7869,2.7886,2.7917,2.8044,2.8048,2.8052,2.8056,2.8062,2.8067,0,0,0,0,0,0,2.7418,2.7488,2.7494,2.7572,2.7617,2.7677,2.7713,2.7721,2.7769,2.7767,2.7796,2.781,2.7875,2.7903,2.7875,2.7984,2.7967,2.7975,2.7964,2.797,2.7975,2.7966,2.7871,0,0,0,0,0,2.7427,2.748,2.7537,2.76,2.7623,2.7664,2.7695,2.7712,2.7759,2.7778,2.7815,2.7859,2.7909,2.7941,2.799,2.8062,2.8073,2.8091,2.8095,2.8099,2.8104,2.8141,2.8149,2.8067,2.8067,2.8067,0,0,2.7443,2.7488,2.752,2.76,2.7637,2.7689,2.768,2.7736,2.7773,2.7786,2.7852,2.788,2.7931,2.8,2.8032,2.8025,2.8129,2.8104,2.8106,2.811,2.8146,2.8153,2.816,2.807,2.8069,2.8069,0,0,2.75,2.7541,2.7597,2.7634,2.769,2.7717,2.773,2.7788,2.7808,2.7875,2.7885,2.7928,2.8015,2.8049,2.8078,2.8145,2.8149,2.816,2.8184,2.8219,2.8225,2.8231,2.8252,2.826,2.8166,2.8166,2.8166,0,2.7514,2.7594,2.7624,2.7679,2.7712,2.7727,2.7782,2.7816,2.7884,2.7906,2.7897,2.8004,2.8039,2.8115,2.8131,2.8155,2.8168,2.8153,2.8223,2.8229,2.8234,2.8255,2.8263,2.8166,2.8166,2.8166,2.8166,0,2.7606,2.7662,2.7699,2.7767,2.7804,2.7859,2.7893,2.7927,2.794,2.7966,2.8032,2.8075,2.8131,2.8151,2.8163,2.8227,2.8221,2.8217,2.82,2.8242,2.8262,2.827,2.8168,2.8167,2.8167,2.8167,0,0,2.7664,2.7746,2.7759,2.7788,2.785,2.7892,2.7945,2.8002,2.803,2.8076,2.8119,2.819,2.8186,2.8219,2.8235,2.8267,2.8313,2.8259,2.826,2.8266,2.8383,2.8385,2.8394,2.8317,2.8318,2.832,2.8378,0,2.7727,2.7825,2.7852,2.7934,2.7983,2.7996,2.8042,2.8083,2.8109,2.8152,2.8179,2.8229,2.8221,2.824,2.8272,2.8301,2.8337,2.8297,2.8354,2.8356,2.8341,2.8404,2.8407,2.846,2.8386,2.8388,2.8389,0,2.7814,2.7862,2.7949,2.8003,2.8024,2.8066,2.8118,2.816,2.8206,2.8222,2.8257,2.827,2.8322,2.8303,2.8374,2.8346,2.8371,2.8388,2.8391,2.8397,2.8374,2.841,2.8478,2.8486,2.8401,2.84,2.8399,0,2.7844,2.7931,2.7994,2.8019,2.8083,2.8111,2.8139,2.8183,2.8215,2.8259,2.8279,2.8329,2.8356,2.8393,2.8417,2.8401,2.8485,2.8469,2.8497,2.8497,2.8514,2.8512,2.8586,2.8532,2.8532,2.8532,2.8531,0,2.7911,2.7963,2.8009,2.8047,2.8104,2.8133,2.8188,2.8216,2.8255,2.8296,2.831,2.8348,2.8379,2.8421,2.844,2.8494,2.8507,2.8519,2.8523,2.8517,2.8515,2.8533,2.8529,2.8534,2.8533,2.8533,2.8533,0,2.7955,2.7988,2.8057,2.8112,2.8126,2.8166,2.8212,2.8248,2.8273,2.8325,2.8339,2.8377,2.8427,2.8455,2.8517,2.8529,2.8589,2.8592,2.8574,2.8576,2.8602,2.8599,2.8689,2.8701,2.864,2.8641,2.8641,0,2.7995,2.8035,2.8094,2.8124,2.8152,2.82,2.8232,2.826,2.8292,2.8346,2.8374,2.8425,2.8467,2.8544,2.8576,2.8622,2.8626,2.8654,2.8633,2.8624,2.8624,2.8621,2.8624,2.8657,2.8658,2.8658,2.8659,0,2.8061,2.8075,2.8122,2.8173,2.8211,2.8253,2.8294,2.8317,2.8351,2.8386,2.8437,2.847,2.8533,2.8581,2.863,2.8655,2.8662,2.8665,2.8674,2.8668,2.8655,2.866,2.8582,2.8663,2.8662,2.8662,2.8662,2.8662,2.8103,2.8139,2.8185,2.8236,2.827,2.8307,2.8343,2.8373,2.8417,2.8471,2.8484,2.8537,2.8578,2.8645,2.8671,2.8711,2.8705,2.8719,2.8722,2.8724,2.8724,2.8649,2.872,2.872,2.872,2.8719,2.8719,0,2.8169,2.8199,2.8245,2.8303,2.8341,2.8346,2.839,2.8422,2.8469,2.8508,2.8549,2.8606,2.8652,2.8687,2.8734,2.8759,2.8763,2.877,2.8768,2.8773,2.8727,2.8714,2.8766,2.8766,2.8766,2.8766,2.8766,2.8766,2.8207,2.8267,2.8286,2.8361,2.839,2.8443,2.8468,2.8502,2.8532,2.8596,2.8636,2.8659,2.8695,2.8744,2.8786,2.8794,2.881,2.8817,2.8826,2.8782,2.8777,2.8772,2.876,2.882,2.882,2.8868,2.8869,2.8869]}]]